Location: Stuttgart
(48.8069°N, 9.1544°E)
Time: 02:42:30
(UTC+02:00)

ISS - Pass Details

Date: 15 May 2021
Orbit: 417 x 422 km, 51.6° (Epoch: 15 June)

Event Time Altitude Azimuth Distance (km) Brightness Sun altitude
Rises 02:01:31 0° 282° (WNW) 2,371 0.1 -21.7°
Reaches altitude 10° 02:03:39 10° 288° (WNW) 1,507 -0.9 -21.6°
Maximum altitude 02:06:59 52° 6° (N) 533 -2.9 -21.5°
Drops below altitude 10° 02:10:18 10° 84° (E) 1,508 -0.7 -21.4°
Sets 02:12:26 0° 89° (E) 2,373 0.2 -21.3°
